Temperature
16 16 16 16 16 16 16 16 16 16 15 15 15 15 15 15 15 15 15 15 15 15 15 15 15 15 15 15 15 15 15 15 15 15 15 15 15 15 15 15 15 14 15
16 16 16 16 16 16 16 16 16 16 15 15 15 15 15 15 15 15 15 15 15 15 15 15 15 15 15 15 15 15 15 15 15 15 15 14 14 14 14 14 14 14 14
16 16 16 16 16 16 16 15 15 15 15 15 15 15 15 15 14 14 14 15 15 15 15 15 15 15 14 14 14 14 14 14 14 14 14 14 14 14 14 14 13 13 13
16 16 16 16 15 15 15 15 15 15 15 15 15 14 14 14 14 14 14 14 14 14 14 14 14 14 14 14 14 14 14 14 14 14 14 14 13 13 13 13 13 13 13
16 16 16 15 15 15 15 15 15 15 15 15 14 14 14 14 14 14 14 14 14 14 14 14 14 14 14 14 14 14 14 14 13 13 13 13 13 13 13 13 13 13 13
16 16 15 15 15 15 15 15 15 15 14 14 14 14 14 14 14 14 14 14 14 14 14 14 14 14 13 13 13 13 13 13 13 13 13 13 13 13 12 12 12 12 12
15 15 15 15 15 15 15 15 15 15 14 14 14 14 13 13 13 13 13 13 13 13 13 13 13 13 13 13 13 13 13 13 13 13 12 12 12 12 12 12 12 12 12
15 15 15 15 15 15 15 15 15 14 14 14 14 14 13 13 13 13 13 13 13 13 13 13 13 13 13 13 13 13 13 13 12 12 12 12 12 12 12 12 12 12 12
15 15 15 15 15 15 14 14 14 14 14 14 14 14 13 13 13 13 13 13 13 13 13 13 13 13 13 13 13 13 13 12 12 12 12 12 12 12 12 11 11 11 11
15 15 15 14 14 14 14 14 14 14 14 14 14 14 14 14 13 12 12 12 12 12 13 13 13 13 12 13 12 12 12 12 12 12 12 12 11 11 11 11 11 11 11
15 15 14 14 14 14 14 14 14 14 14 14 14 14 14 14 14 13 12 12 12 12 12 12 12 12 12 12 12 12 12 12 12 12 11 11 11 11 11 11 11 10 10
15 14 14 14 14 14 14 14 14 14 14 14 14 14 14 14 14 14 13 12 12 12 12 12 12 12 12 12 12 12 12 12 12 11 11 11 11 10 10 10 10 10 10
15 15 14 14 14 14 14 14 14 14 14 14 14 14 14 14 14 14 13 13 12 12 12 12 11 11 11 11 12 12 12 11 11 11 11 11 11 10 10 10 10 10 10
15 14 14 14 14 14 14 14 14 14 14 14 14 14 14 14 14 13 13 13 12 12 11 11 11 11 11 11 11 11 11 11 11 11 11 11 10 10 10 10 10 10 10
15 14 14 14 14 14 14 14 14 14 14 14 14 13 13 13 13 13 13 13 13 12 11 11 11 11 11 11 11 11 11 11 11 11 11 11 10 10 10 10 10 10 10
15 14 14 14 14 14 14 14 14 14 13 13 13 13 13 13 13 13 13 13 13 13 12 12 11 11 11 11 11 11 11 11 11 10 10 10 10 10 10 10 10 10 10
15 14 14 14 14 14 14 14 13 13 13 13 13 13 13 13 13 13 13 13 13 13 12 12 11 11 11 11 11 11 11 11 10 10 10 10 10 10 10 10 10 10 10
15 14 14 14 14 14 14 13 13 13 13 13 13 13 13 13 13 13 13 13 13 12 12 12 11 11 11 11 10 10 10 10 10 10 10 10 10 10 10 10 10 10 9
14 14 14 14 14 14 14 13 13 13 13 13 13 13 13 13 13 13 12 12 12 12 12 12 11 11 11 11 10 10 10 10 10 10 10 10 10 10 9 9 9 9 9
14 14 14 14 14 13 13 13 13 13 13 13 13 13 13 12 12 12 12 12 12 12 12 11 11 11 11 10 10 10 10 10 10 10 10 9 9 9 9 9 9 9 9
14 14 14 14 13 13 13 13 13 13 13 13 13 12 12 12 12 12 12 12 12 12 11 11 11 11 11 10 10 10 10 10 10 10 9 9 9 9 9 9 9 9 9
14 13 13 13 13 13 13 13 13 13 13 13 12 12 12 12 12 12 12 12 12 11 11 11 11 11 11 10 10 10 10 10 9 9 9 9 9 9 9 9 9 9 8
14 13 13 13 13 13 13 13 12 12 12 12 12 12 12 12 12 12 12 11 11 11 11 11 11 11 11 10 10 10 10 9 9 9 9 9 9 9 9 9 8 8 8
13 13 13 13 13 13 12 12 12 12 12 12 12 12 12 12 12 12 11 11 11 11 11 11 11 11 10 10 10 10 10 9 9 9 9 9 9 9 9 8 8 8 8
13 13 13 13 12 12 12 12 12 12 12 12 12 12 11 11 11 11 11 11 11 11 11 10 10 10 10 10 10 9 9 9 9 9 8 8 8 8 8 8 8 8 7
13 13 12 12 12 12 12 12 12 12 12 11 11 11 11 11 11 11 11 11 11 11 10 10 10 10 10 9 9 9 9 9 8 8 8 8 8 8 8 8 8 7 7
Wind_Speed
3 3 3 4 5 6 6 6 7 7 7 8 9 9 8 9 9 9 10 13 13 12 12 12 12 11 11 10 10 11 10 10 10 10 10 10 11 10 10 10 10 10 10
5 4 3 4 5 6 7 7 7 6 5 6 7 8 8 8 9 9 9 11 13 13 12 12 12 11 11 11 11 11 11 11 10 11 11 11 11 11 11 11 10 10 10
7 5 4 4 5 7 8 8 8 7 5 6 5 6 7 8 9 9 10 9 10 12 13 12 12 12 12 11 11 11 11 11 11 11 11 11 11 11 11 11 11 11 10
8 6 4 4 6 8 7 5 4 5 5 5 5 4 5 7 8 9 9 9 10 9 11 12 12 11 11 11 10 11 11 10 11 11 11 11 11 11 11 12 12 12 12
8 7 5 4 7 6 5 5 4 4 5 5 5 5 4 4 5 8 8 8 9 9 9 10 11 11 11 10 10 10 10 10 10 11 11 11 11 11 11 12 12 13 12
8 7 5 5 7 5 4 4 5 4 3 4 6 6 5 4 4 5 5 7 8 8 9 9 9 10 11 10 10 10 10 10 10 10 11 11 11 11 11 11 12 12 13
6 6 5 4 5 4 4 4 4 4 3 3 5 4 5 5 5 4 5 5 6 7 8 9 9 9 9 10 10 9 9 9 10 10 11 11 11 11 11 11 11 12 12
5 5 5 4 4 4 4 4 4 3 2 2 3 3 2 3 4 4 3 3 4 6 7 8 9 9 9 9 9 9 9 9 10 10 10 10 10 10 11 11 11 11 11
5 5 5 4 4 4 4 3 3 4 2 0 1 3 3 2 0 3 3 3 3 3 4 6 7 7 8 8 8 9 9 9 9 9 9 9 9 9 9 10 10 10 10
4 5 5 4 3 3 3 3 3 2 3 1 0 1 2 4 3 1 2 3 3 3 3 4 5 6 7 8 8 9 9 9 8 8 8 8 8 8 8 9 9 8 9
3 4 5 4 4 3 3 2 2 2 2 2 1 1 2 2 3 3 1 1 3 3 2 3 4 5 6 7 7 8 9 8 8 8 8 8 7 7 7 7 7 7 7
1 2 4 4 3 2 2 3 2 3 2 2 1 1 2 2 2 3 3 2 0 2 2 2 3 3 4 5 5 6 7 7 7 7 7 7 7 6 6 6 6 6 6
1 2 3 3 3 3 3 3 2 2 2 3 2 1 1 2 3 3 4 3 1 1 1 2 1 2 3 4 4 5 6 6 6 6 7 6 6 5 5 5 5 5 5
4 4 3 3 3 3 3 3 2 2 2 2 2 2 2 1 2 4 4 4 3 1 1 1 1 0 2 3 3 4 4 5 5 5 5 5 4 4 4 4 4 4 4
4 5 4 4 3 3 3 3 2 2 2 2 2 2 2 1 2 2 3 4 5 3 2 2 1 1 2 2 3 3 3 3 4 4 4 4 3 3 3 3 4 4 4
5 5 4 4 3 3 3 3 3 2 3 2 2 3 2 2 2 2 3 2 3 4 3 3 2 2 3 2 2 3 3 2 2 2 3 3 3 3 3 3 3 3 4
6 6 5 4 4 3 3 3 3 3 3 2 2 3 2 2 2 2 2 2 2 3 4 1 1 1 2 2 2 2 2 1 1 1 2 2 2 1 1 1 2 2 2
5 5 5 5 4 3 3 4 3 3 3 3 3 3 3 2 3 2 2 2 2 3 4 3 1 1 1 2 2 2 1 1 2 2 2 2 1 1 0 1 1 1 1
5 4 5 5 5 4 4 4 4 4 4 4 4 4 4 4 3 2 2 3 2 3 3 4 2 1 1 1 1 0 0 0 1 1 2 2 2 2 1 1 1 1 0
5 5 5 5 5 4 4 4 4 3 3 3 3 4 4 5 5 4 3 4 4 4 3 4 2 1 0 0 1 1 1 1 1 1 2 3 3 3 3 2 2 2 2
5 5 4 4 4 4 4 4 4 4 4 3 2 3 4 5 6 5 4 5 5 4 3 3 2 1 1 1 2 2 2 1 2 1 1 2 2 3 3 4 4 4 4
4 5 5 5 4 3 5 7 5 4 4 4 3 2 2 3 5 6 7 8 8 6 5 4 3 3 4 3 2 2 2 0 2 2 1 2 1 2 4 4 5 5 5
4 5 5 5 4 4 6 7 7 4 4 4 4 3 2 2 3 3 4 5 6 7 8 6 6 6 5 6 5 3 3 3 3 2 1 2 1 3 5 5 5 5 6
3 5 5 5 4 4 6 7 7 4 3 3 4 4 4 3 4 4 4 3 2 3 5 5 6 6 6 6 6 5 5 2 1 1 2 2 2 3 3 4 4 5 5
3 4 4 5 5 5 6 7 7 4 3 3 3 4 4 4 6 7 5 4 3 2 3 5 6 6 6 6 7 4 3 2 1 2 1 2 2 2 2 3 5 5 5
3 3 4 5 6 5 6 7 7 4 3 3 2 3 6 6 7 8 6 5 4 4 2 2 1 2 3 4 6 5 5 4 2 2 2 2 1 0 2 2 2 3 4
Wind_Direction
111 107 98 95 89 92 93 87 85 85 82 85 88 88 82 78 73 68 64 68 72 76 78 79 80 80 82 90 94 93 92 89 85 84 85 87 87 86 83 82 84 79 76
109 101 94 91 90 93 93 93 92 88 80 82 81 84 83 80 77 71 63 60 65 69 72 74 75 78 82 88 93 92 93 91 87 86 85 86 85 86 84 81 80 80 75
107 106 98 84 87 94 92 91 84 81 79 79 76 79 80 79 78 73 67 62 61 62 63 68 69 72 79 85 87 88 91 92 91 89 89 88 88 85 84 81 79 78 76
98 102 97 93 99 96 94 92 84 80 72 73 72 68 71 73 74 75 73 69 65 59 57 62 65 68 74 80 86 87 89 90 92 92 91 88 88 87 85 82 81 79 77
91 96 98 100 99 94 90 97 87 95 91 82 81 70 61 63 66 73 68 68 68 64 60 59 61 61 66 74 82 86 89 91 95 95 92 90 88 89 87 83 81 80 76
95 97 101 100 100 92 83 92 95 83 94 97 93 73 53 50 58 65 68 66 67 67 65 60 56 54 59 68 79 86 90 92 98 98 94 90 88 88 87 85 81 80 76
97 103 105 101 102 103 109 108 102 91 87 100 91 68 40 39 47 48 57 64 63 66 70 67 63 59 55 59 68 80 87 93 94 95 92 91 87 86 86 86 83 81 77
98 111 116 115 110 103 101 104 106 101 109 114 116 109 73 26 22 33 37 56 57 65 68 67 67 64 60 58 60 70 80 90 97 96 94 92 88 86 85 84 82 79 75
102 108 120 119 123 120 128 135 127 126 144 203 133 137 142 170 61 7 23 39 45 52 61 69 68 68 68 67 68 69 75 82 90 96 96 94 91 88 87 85 81 77 73
109 108 117 121 128 132 141 158 143 142 145 181 300 77 140 146 143 109 4 10 30 43 45 69 71 69 70 71 70 72 78 82 84 89 93 94 94 94 92 89 82 77 73
110 115 119 118 128 142 151 142 131 132 142 159 163 129 88 82 103 135 152 347 14 10 27 65 83 78 75 73 72 73 76 81 85 89 92 90 92 93 90 88 83 78 72
112 124 122 120 131 140 148 148 146 136 136 132 132 140 151 146 148 138 150 163 109 338 5 38 67 85 88 85 81 77 80 85 87 89 91 90 88 86 85 86 81 75 67
176 189 140 136 140 156 155 143 135 130 139 133 138 135 143 159 153 142 139 145 142 314 8 4 10 102 102 99 90 85 85 91 94 94 93 92 89 87 83 80 76 72 64
188 184 164 158 160 161 151 136 125 133 129 131 128 126 115 131 143 150 150 143 128 43 11 301 336 150 131 122 116 110 96 96 98 99 96 90 87 85 81 69 66 65 57
177 169 167 162 159 154 150 137 127 135 129 128 125 119 120 119 122 144 146 151 148 156 222 240 247 253 172 153 147 132 125 114 107 103 96 93 90 85 82 77 69 65 58
169 161 167 160 153 146 142 132 135 145 134 139 130 116 113 125 114 117 145 146 141 148 174 219 219 215 179 162 178 165 164 139 132 120 108 102 104 98 88 81 84 74 66
169 170 177 169 164 160 149 140 151 154 151 147 137 137 143 132 119 109 115 128 130 133 146 206 213 180 151 162 163 178 194 196 202 166 149 130 115 105 97 85 104 85 74
173 175 171 169 172 166 161 157 169 169 168 167 166 153 160 141 123 119 122 124 136 141 144 155 186 169 187 188 169 171 204 218 207 186 179 181 187 171 176 189 162 114 78
171 172 167 172 174 173 169 171 168 173 177 178 175 173 176 155 151 149 141 134 130 121 123 144 172 186 195 161 133 192 236 294 228 230 220 225 216 220 222 209 193 177 135
170 173 176 179 177 174 171 171 163 161 167 176 179 178 176 171 172 166 157 150 136 119 120 133 143 152 180 167 128 166 308 309 277 266 255 234 231 233 234 231 231 223 224
177 171 165 169 173 171 176 169 165 163 162 158 159 172 180 180 175 170 167 162 148 140 139 143 155 149 187 173 201 202 211 293 308 277 280 267 243 251 257 254 253 248 242
177 166 168 171 174 191 185 177 169 164 164 164 169 178 186 180 178 176 172 171 166 164 171 171 182 189 211 210 198 184 175 146 284 269 189 285 236 257 258 251 254 254 256
173 172 179 175 181 189 176 173 169 165 170 178 178 181 195 189 167 165 167 171 183 190 184 180 188 202 202 203 183 183 191 195 224 239 160 277 289 269 265 259 260 264 270
178 185 183 185 185 200 187 176 166 153 168 187 189 189 185 190 188 169 159 158 181 204 201 194 199 208 207 197 189 190 192 190 264 280 160 231 274 268 275 268 273 273 272
181 188 183 182 185 205 197 182 165 155 174 201 203 195 188 192 199 179 161 167 187 236 218 206 212 209 203 193 175 142 140 146 256 273 210 187 258 279 284 280 284 284 275
186 182 187 188 184 194 195 186 171 165 181 203 211 212 207 202 202 185 174 172 189 219 198 178 200 203 189 182 177 174 175 177 201 252 232 178 234 227 303 285 293 309 299
Height
1549 1549 1549 1550 1550 1550 1550 1550 1550 1550 1550 1550 1550 1549 1549 1549 1548 1548 1547 1547 1547 1546 1546 1545 1544 1543 1543 1542 1542 1542 1542 1542 1542 1542 1542 1542 1541 1541 1541 1540 1539 1539 1538
1550 1550 1551 1551 1551 1551 1551 1551 1551 1551 1551 1551 1551 1551 1550 1550 1550 1550 1549 1549 1548 1548 1547 1547 1546 1545 1544 1544 1543 1543 1543 1543 1543 1543 1543 1543 1542 1542 1542 1541 1541 1540 1540
1551 1551 1552 1552 1552 1552 1552 1552 1552 1553 1552 1552 1552 1552 1552 1552 1552 1551 1551 1550 1550 1550 1549 1548 1547 1546 1546 1545 1545 1544 1544 1544 1544 1544 1544 1543 1543 1543 1543 1543 1543 1542 1542
1552 1552 1552 1553 1553 1553 1553 1553 1553 1553 1553 1553 1553 1553 1553 1553 1553 1553 1552 1552 1551 1551 1550 1550 1549 1548 1547 1547 1546 1546 1545 1545 1545 1545 1544 1544 1544 1544 1544 1544 1544 1543 1543
1553 1553 1553 1553 1554 1554 1554 1554 1554 1554 1554 1554 1554 1554 1554 1554 1554 1554 1554 1553 1553 1552 1551 1551 1550 1549 1548 1548 1547 1547 1546 1546 1546 1545 1545 1545 1545 1545 1545 1545 1545 1544 1544
1553 1553 1553 1554 1554 1554 1554 1555 1555 1555 1555 1555 1555 1556 1556 1556 1556 1555 1555 1554 1554 1553 1553 1552 1551 1550 1549 1549 1548 1548 1547 1547 1547 1547 1546 1546 1546 1546 1546 1546 1546 1545 1545
1553 1554 1554 1554 1554 1554 1555 1555 1555 1556 1556 1556 1556 1557 1557 1557 1557 1557 1556 1556 1555 1555 1554 1553 1552 1551 1550 1549 1549 1549 1548 1548 1547 1547 1547 1547 1547 1547 1547 1547 1547 1547 1546
1554 1554 1554 1554 1554 1555 1555 1555 1555 1556 1556 1557 1557 1556 1558 1559 1558 1558 1557 1557 1556 1556 1555 1554 1553 1552 1551 1551 1550 1550 1549 1549 1549 1548 1548 1548 1548 1548 1548 1548 1548 1548 1547
1554 1554 1554 1554 1554 1555 1555 1555 1555 1556 1556 1557 1557 1557 1557 1557 1558 1559 1558 1558 1557 1556 1556 1555 1554 1553 1552 1551 1551 1550 1550 1550 1550 1550 1550 1550 1550 1550 1549 1549 1549 1548 1548
1553 1554 1554 1554 1554 1554 1555 1555 1555 1556 1556 1556 1556 1556 1557 1557 1557 1558 1559 1558 1558 1557 1556 1556 1555 1554 1553 1552 1552 1552 1551 1551 1551 1551 1551 1551 1551 1551 1550 1550 1550 1549 1549
1553 1553 1553 1553 1554 1554 1554 1554 1555 1555 1555 1555 1555 1555 1556 1556 1556 1557 1557 1558 1558 1558 1557 1556 1556 1555 1554 1554 1553 1553 1552 1552 1552 1552 1552 1552 1552 1552 1551 1551 1550 1550 1550
1552 1553 1553 1553 1553 1553 1554 1554 1554 1554 1554 1554 1554 1555 1555 1555 1555 1556 1556 1557 1557 1558 1557 1557 1556 1556 1555 1555 1554 1554 1553 1553 1553 1552 1552 1552 1552 1552 1552 1551 1551 1550 1550
1551 1552 1552 1552 1552 1552 1553 1553 1553 1553 1553 1553 1553 1554 1554 1554 1555 1555 1555 1556 1556 1557 1557 1557 1557 1556 1556 1556 1555 1555 1554 1554 1554 1553 1553 1553 1553 1553 1552 1552 1551 1551 1550
1550 1551 1551 1551 1551 1552 1552 1552 1552 1552 1552 1552 1552 1553 1553 1553 1554 1554 1555 1555 1555 1556 1557 1557 1557 1557 1556 1556 1556 1555 1555 1555 1554 1554 1554 1553 1553 1553 1552 1552 1551 1551 1550
1549 1550 1550 1550 1550 1550 1551 1551 1551 1551 1551 1551 1552 1552 1552 1552 1553 1553 1554 1555 1556 1555 1556 1556 1556 1556 1556 1556 1556 1556 1555 1555 1555 1554 1554 1554 1553 1553 1552 1552 1551 1550 1549
1547 1548 1549 1549 1549 1549 1549 1550 1550 1550 1550 1550 1551 1551 1551 1552 1552 1553 1553 1554 1554 1555 1554 1555 1555 1556 1556 1556 1556 1556 1555 1555 1555 1554 1554 1554 1553 1553 1552 1552 1551 1550 1549
1546 1546 1547 1547 1547 1548 1548 1548 1549 1549 1549 1549 1550 1550 1550 1551 1551 1552 1552 1553 1553 1553 1553 1554 1555 1555 1555 1555 1555 1555 1555 1555 1554 1554 1554 1553 1553 1552 1551 1551 1550 1550 1549
1544 1545 1545 1546 1546 1546 1547 1547 1547 1548 1548 1548 1548 1549 1549 1550 1550 1551 1551 1551 1552 1552 1553 1553 1553 1554 1554 1555 1555 1554 1554 1554 1554 1553 1553 1553 1552 1551 1551 1550 1549 1549 1548
1542 1543 1543 1544 1544 1545 1545 1545 1546 1546 1547 1547 1547 1548 1548 1548 1549 1549 1550 1550 1550 1551 1551 1552 1552 1553 1553 1553 1554 1554 1553 1553 1553 1552 1552 1552 1551 1550 1550 1549 1548 1547 1546
1539 1540 1541 1542 1542 1543 1543 1544 1544 1545 1545 1545 1546 1546 1547 1547 1547 1548 1548 1548 1549 1549 1550 1550 1551 1551 1552 1552 1552 1552 1552 1552 1551 1551 1551 1550 1550 1549 1548 1547 1547 1546 1545
1536 1538 1538 1539 1540 1540 1541 1542 1542 1543 1543 1544 1544 1544 1545 1545 1546 1546 1546 1547 1547 1548 1548 1549 1549 1549 1550 1550 1550 1550 1550 1550 1550 1549 1549 1548 1548 1547 1546 1545 1545 1544 1543
1534 1535 1535 1536 1537 1538 1539 1539 1540 1541 1541 1541 1542 1542 1543 1544 1544 1544 1544 1545 1546 1546 1546 1547 1547 1547 1548 1548 1548 1548 1548 1548 1547 1548 1547 1546 1546 1545 1544 1543 1542 1541 1540
1530 1531 1532 1533 1534 1535 1536 1537 1537 1538 1538 1539 1540 1540 1540 1541 1541 1542 1542 1543 1543 1544 1545 1545 1545 1545 1545 1546 1546 1546 1546 1545 1545 1545 1545 1543 1543 1543 1542 1541 1540 1539 1538
1527 1528 1529 1530 1531 1532 1533 1533 1534 1535 1535 1536 1537 1537 1538 1538 1539 1539 1539 1540 1540 1541 1541 1542 1542 1542 1543 1543 1543 1544 1543 1543 1543 1543 1543 1541 1540 1540 1539 1538 1537 1536 1535
1523 1524 1526 1527 1527 1528 1529 1530 1531 1531 1532 1533 1533 1534 1535 1535 1536 1536 1537 1537 1537 1538 1538 1539 1539 1539 1540 1540 1540 1541 1540 1540 1539 1539 1540 1538 1537 1536 1535 1535 1534 1533 1532
1520 1521 1523 1524 1524 1525 1526 1527 1528 1528 1529 1529 1530 1531 1531 1532 1533 1533 1533 1533 1534 1535 1535 1535 1536 1536 1536 1537 1537 1537 1537 1537 1536 1536 1536 1535 1534 1533 1532 1531 1531 1530 1528